This is the latest recevied weather packets stored in our database for station/object OK3MS-5. If no packets are shown the sender has not sent any weather packets the latest 10 day(s).
| Time | Temp. | Humidity | Pressure | Rain* | Wind** | Luminosity | Snow |
|---|---|---|---|---|---|---|---|
| 1777445404 | 7.78° C | 44% | 1024.3 hPa | 0 mm | - | 290 W/m² | - |
| 1777445103 | 7.78° C | 45% | 1024.3 hPa | 0 mm | - | 275 W/m² | - |
| 1777444804 | 7.78° C | 44% | 1024.5 hPa | 0 mm | - | 263 W/m² | - |
| 1777444503 | 7.22° C | 45% | 1024.4 hPa | 0 mm | - | 246 W/m² | - |
| 1777444204 | 7.22° C | 47% | 1024.4 hPa | 0 mm | - | 232 W/m² | - |
| 1777443903 | 6.67° C | 47% | 1024.5 hPa | 0 mm | - | 216 W/m² | - |
| 1777443603 | 6.67° C | 46% | 1024.6 hPa | 0 mm | - | 172 W/m² | - |
| 1777443304 | 6.11° C | 48% | 1024.5 hPa | 0 mm | - | 51 W/m² | - |
| 1777443006 | 6.11° C | 49% | 1024.6 hPa | 0 mm | - | 50 W/m² | - |
| 1777442704 | 6.11° C | 48% | 1024.7 hPa | 0 mm | - | 49 W/m² | - |
| 1777442406 | 6.11° C | 49% | 1024.7 hPa | 0 mm | - | 48 W/m² | - |
| 1777442102 | 5.56° C | 48% | 1024.8 hPa | 0 mm | - | 48 W/m² | - |
| 1777441802 | 5.56° C | 50% | 1024.7 hPa | 0 mm | - | 48 W/m² | - |
| 1777441502 | 5° C | 51% | 1024.8 hPa | 0 mm | - | 47 W/m² | - |
| 1777441204 | 5° C | 51% | 1024.8 hPa | 0 mm | - | 46 W/m² | - |
| 1777440904 | 5° C | 51% | 1024.7 hPa | 0 mm | - | 45 W/m² | - |
| 1777440604 | 4.44° C | 52% | 1024.8 hPa | 0 mm | - | 44 W/m² | - |
| 1777440304 | 4.44° C | 52% | 1024.8 hPa | 0 mm | - | 58 W/m² | - |
| 1777440003 | 4.44° C | 53% | 1024.7 hPa | 0 mm | - | 57 W/m² | - |
| 1777439704 | 4.44° C | 53% | 1024.7 hPa | 0 mm | - | 41 W/m² | - |
| 1777439402 | 4.44° C | 53% | 1024.6 hPa | 0 mm | - | 39 W/m² | - |
| 1777439104 | 4.44° C | 53% | 1024.5 hPa | 0 mm | - | 37 W/m² | - |
| 1777438804 | 4.44° C | 52% | 1024.4 hPa | 0 mm | - | 36 W/m² | - |
| 1777438505 | 4.44° C | 51% | 1024.4 hPa | 0 mm | - | 34 W/m² | - |
| 1777438205 | 3.89° C | 50% | 1024.5 hPa | 0 mm | - | 32 W/m² | - |
* Rain latest hour (hover to see other rain measurements)
** Current wind speed in m/s (hover to see current wind gust speed)